Yaogan 30 hao 08 zu 01 xing

operational
NORAD ID: 48423 Int'l Des: 2021-039 Owner: ZLZB Country: CN Constellation: yaogan
LEOCIRCULAR

Yaogan 30 hao 08 zu 01 xingについて

説明を読み込み中...

リアルタイム位置

3D地球を読み込み中...

次回通過

高度履歴

Altitude vs Time

uPlot chart will show altitude changes over time

軌道要素

1 48423U 21039A 26063.63372763 .00004697 00000-0 35236-3 0 9998
2 48423 34.9974 308.5780 0004645 226.3961 133.6362 15.02083450263810
Epoch: Mar 4, 2026 • Age: 23 hours

現在のステータス

高度 563.2 km
速度 7.58 km/s
衛星直下点 28.47°N, 157.37°W
打ち上げ日 May 6, 2021
運用期間 4.8 years
タイプ military

技術仕様

分類 Payload
質量 500.00 kg
乾燥質量 500.00 kg
総質量 500.00 kg
長さ 0.50 m
直径 0.50 m
スパン 1.00 m
形状 Box + 2 Pan
製造者 SECM
フェーズステータス In Orbit
所有者/国 ZLZB/CN

大規模コンステレーション

Loading constellations...